Weather History for Crestview, FL

Change the Weather History Date:

Sunday, March 31, 2013

  Actual Average Record
Temperature  
Mean Temperature 66 °F -  
Max Temperature 77 °F - - ()
Min Temperature 56 °F - - ()
Cooling Degree Days 2    
Growing Degree Days 16 (Base 50)    
Moisture  
Dew Point 61 °F    
Average Humidity 89    
Maximum Humidity 100    
Minimum Humidity 57    
Precipitation  
Precipitation 0.00 in - - ()
Sea Level Pressure  
Sea Level Pressure 30.01 in    
Wind  
Wind Speed 6 mph (South)    
Max Wind Speed 18 mph    
Max Gust Speed 23 mph    
Visibility 8 miles    
Events Fog , Rain    
T = Trace of Precipitation, MM = Missing Value Source: NWS Daily Summary

Daily Weather History Graph

Daily Weather History Graph

Search for Another Location

Airport:

Trip Planner

Search our weather history database for the weather conditions in past years. The results will help you decide how hot, cold, wet, or windy it might be!

Date:

Astronomy

Mar. 31, 2013 Rise Set
Actual Time 6:36 AM CDT 7:04 PM CDT
Civil Twilight 6:11 AM CDT 7:28 PM CDT
Nautical Twilight 5:43 AM CDT 7:57 PM CDT
Astronomical Twilight 5:14 AM CDT 8:26 PM CDT
Moon 11:55 PM CDT (3/31) 9:40 AM CDT (3/31)
Length of Visible Light 13h 17m
Length of Day
12h 28m
Waning Gibbous, 77% of the Moon is Illuminated
Mar 31
Waning Gibbous
Apr 2
Last Quarter
Apr 10
New
Apr 18
First Quarter
Apr 25
Full

Hourly Weather History & Observations

Time (CDT) Temp. Dew Point Humidity Pressure Visibility Wind Dir Wind Speed Gust Speed Precip Events Conditions
12:58 AM 56.8 °F 56.5 °F 99% 30.09 in 10.0 mi South 5.8 mph - N/A   Partly Cloudy
1:58 AM 58.1 °F 57.7 °F 99% 30.07 in 7.0 mi South 5.8 mph - N/A   Scattered Clouds
2:58 AM 57.9 °F 57.6 °F 99% 30.05 in 9.0 mi SSE 4.6 mph - N/A   Mostly Cloudy
3:38 AM 57.2 °F 57.2 °F 100% 30.04 in 2.0 mi South 4.6 mph - N/A   Partly Cloudy
3:43 AM 57.2 °F 57.2 °F 100% 30.04 in 2.5 mi South 4.6 mph - N/A   Partly Cloudy
3:48 AM 57.2 °F 57.2 °F 100% 30.03 in 6.0 mi South 4.6 mph - N/A   Partly Cloudy
3:58 AM 56.8 °F 56.7 °F 99% 30.04 in 8.0 mi South 4.6 mph - N/A   Scattered Clouds
4:58 AM 59.2 °F 59.0 °F 99% 30.04 in 8.0 mi SSE 3.5 mph - N/A   Scattered Clouds
5:58 AM 59.2 °F 58.8 °F 99% 30.04 in 10.0 mi Calm Calm - N/A   Scattered Clouds
6:38 AM 59.0 °F 57.2 °F 94% 30.04 in 1.5 mi South 2.3 mph - N/A   Scattered Clouds
6:43 AM 59.0 °F 59.0 °F 100% 30.04 in 1.2 mi South 2.3 mph - N/A   Scattered Clouds
6:48 AM 59.0 °F 59.0 °F 100% 30.03 in 1.5 mi South 2.3 mph - N/A   Scattered Clouds
6:53 AM 59.0 °F 57.2 °F 94% 30.03 in 0.5 mi SSE 2.3 mph - N/A Fog Fog
6:58 AM 59.0 °F 59.0 °F 100% 30.04 in 0.2 mi South 2.3 mph - N/A Fog Fog
7:23 AM 57.2 °F 57.2 °F 100% 30.04 in 0.5 mi Calm Calm - N/A Fog Fog
7:28 AM 59.0 °F 59.0 °F 100% 30.04 in 0.8 mi Calm Calm - N/A   Clear
7:33 AM 59.0 °F 59.0 °F 100% 30.04 in 2.0 mi Calm Calm - N/A   Clear
7:38 AM 59.0 °F 59.0 °F 100% 30.05 in 9.0 mi Calm Calm - N/A   Clear
7:58 AM 61.5 °F 61.5 °F 100% 30.06 in 10.0 mi Calm Calm - N/A   Clear
8:58 AM 68.4 °F 63.0 °F 83% 30.06 in 10.0 mi South 6.9 mph - N/A   Clear
9:58 AM 71.8 °F 61.7 °F 70% 30.06 in 10.0 mi SW 9.2 mph - N/A   Scattered Clouds
10:58 AM 73.2 °F 61.0 °F 65% 30.04 in 10.0 mi SW 8.1 mph - N/A   Partly Cloudy
11:58 AM 76.3 °F 60.4 °F 58% 30.03 in 10.0 mi South 13.8 mph 19.6 mph N/A   Mostly Cloudy
12:58 PM 76.5 °F 62.1 °F 61% 30.02 in 10.0 mi South 15.0 mph 23.0 mph N/A   Partly Cloudy
1:58 PM 77.4 °F 60.8 °F 57% 29.99 in 10.0 mi SSW 16.1 mph 21.9 mph N/A   Clear
2:58 PM 77.2 °F 62.6 °F 61% 29.98 in 10.0 mi South 15.0 mph - N/A   Partly Cloudy
3:58 PM 76.1 °F 61.0 °F 59% 29.97 in 10.0 mi South 16.1 mph 23.0 mph N/A   Partly Cloudy
4:58 PM 73.2 °F 63.0 °F 70% 29.95 in 10.0 mi South 18.4 mph - N/A   Partly Cloudy
5:58 PM 70.5 °F 64.0 °F 80% 29.95 in 10.0 mi South 16.1 mph - N/A   Scattered Clouds
6:58 PM 68.9 °F 64.0 °F 84% 29.95 in 10.0 mi South 16.1 mph - N/A   Partly Cloudy
7:48 PM 68.0 °F 64.4 °F 88% 29.96 in 10.0 mi South 15.0 mph - N/A   Mostly Cloudy
7:58 PM 68.0 °F 64.4 °F 88% 29.97 in 10.0 mi South 13.8 mph - N/A   Scattered Clouds
8:08 PM 68.0 °F 64.4 °F 88% 29.96 in 10.0 mi South 15.0 mph - N/A   Mostly Cloudy
8:38 PM 68.0 °F 64.4 °F 88% 29.96 in 10.0 mi SSW 10.4 mph - N/A   Scattered Clouds
8:58 PM 67.3 °F 64.4 °F 90% 29.98 in 10.0 mi SSW 10.4 mph - N/A   Partly Cloudy
9:44 PM 68.0 °F 64.4 °F 88% 29.96 in 10.0 mi SSW 8.1 mph - N/A   Light Drizzle
9:58 PM 67.1 °F 65.5 °F 95% 29.97 in 10.0 mi SSW 9.2 mph - N/A Rain Light Rain
10:01 PM 66.2 °F 66.2 °F 100% 29.96 in 10.0 mi South 8.1 mph - N/A   Partly Cloudy
10:58 PM 66.6 °F 65.7 °F 97% 29.95 in 10.0 mi SSE 5.8 mph - N/A   Clear
11:00 PM 66.2 °F 66.2 °F 100% 29.94 in 10.0 mi SSE 5.8 mph - N/A   Light Drizzle
11:06 PM 66.2 °F 66.2 °F 100% 29.93 in 10.0 mi SSE 5.8 mph - N/A   Clear
11:58 PM 66.2 °F 65.7 °F 98% 29.92 in 10.0 mi South 8.1 mph - N/A   Scattered Clouds